QPF
0.00 0.00 0.00 0.00 0.00 0.00 0.00 0.00 0.00 0.00 0.00 0.00 0.00 0.01 0.09 0.24 0.14 0.08 0.01 0.01 0.00 0.00 0.00 0.00 0.01 0.00 0.00 0.00 0.00 0.00 0.00 0.00
0.00 0.00 0.00 0.00 0.00 0.00 0.00 0.00 0.00 0.00 0.00 0.00 0.00 0.01 0.02 0.11 0.12 0.10 0.05 0.00 0.00 0.00 0.00 0.01 0.01 0.00 0.00 0.00 0.00 0.01 0.00 0.01
0.00 0.00 0.00 0.00 0.00 0.00 0.00 0.00 0.00 0.00 0.00 0.00 0.00 0.01 0.03 0.09 0.17 0.15 0.15 0.03 0.00 0.00 0.00 0.00 0.00 0.00 0.00 0.00 0.00 0.00 0.01 0.01
0.00 0.00 0.00 0.00 0.00 0.00 0.00 0.00 0.00 0.00 0.00 0.00 0.00 0.00 0.01 0.05 0.16 0.16 0.18 0.14 0.01 0.00 0.00 0.00 0.00 0.00 0.00 0.00 0.00 0.00 0.00 0.00
0.00 0.00 0.00 0.00 0.00 0.00 0.00 0.00 0.00 0.00 0.00 0.00 0.00 0.00 0.00 0.02 0.09 0.13 0.17 0.21 0.06 0.00 0.00 0.00 0.00 0.00 0.00 0.00 0.00 0.00 0.00 0.00
0.00 0.00 0.00 0.00 0.00 0.00 0.00 0.00 0.00 0.00 0.00 0.00 0.00 0.00 0.00 0.00 0.06 0.13 0.16 0.21 0.12 0.01 0.00 0.00 0.00 0.00 0.00 0.00 0.00 0.00 0.00 0.00
0.00 0.00 0.00 0.00 0.00 0.00 0.00 0.00 0.00 0.00 0.00 0.00 0.00 0.00 0.00 0.00 0.02 0.11 0.16 0.22 0.13 0.04 0.00 0.00 0.00 0.00 0.00 0.00 0.00 0.00 0.00 0.00
0.00 0.00 0.00 0.00 0.00 0.00 0.00 0.00 0.00 0.00 0.00 0.00 0.00 0.00 0.00 0.01 0.02 0.09 0.13 0.17 0.09 0.05 0.00 0.00 0.00 0.00 0.00 0.00 0.00 0.00 0.00 0.00
0.00 0.00 0.00 0.00 0.00 0.00 0.00 0.00 0.00 0.00 0.00 0.00 0.00 0.00 0.00 0.00 0.03 0.07 0.10 0.16 0.08 0.07 0.07 0.06 0.01 0.01 0.00 0.00 0.00 0.01 0.01 0.01
0.00 0.00 0.00 0.00 0.00 0.00 0.00 0.00 0.00 0.00 0.00 0.00 0.00 0.00 0.00 0.02 0.02 0.02 0.03 0.10 0.11 0.12 0.20 0.12 0.02 0.01 0.02 0.05 0.03 0.04 0.04 0.02
0.00 0.00 0.00 0.00 0.00 0.00 0.00 0.00 0.00 0.00 0.00 0.00 0.01 0.02 0.01 0.02 0.03 0.02 0.01 0.06 0.11 0.15 0.23 0.21 0.20 0.15 0.11 0.06 0.03 0.03 0.03 0.04
0.00 0.00 0.00 0.00 0.00 0.00 0.00 0.00 0.00 0.00 0.00 0.02 0.02 0.03 0.03 0.02 0.01 0.01 0.00 0.00 0.02 0.05 0.12 0.17 0.22 0.24 0.20 0.19 0.13 0.06 0.03 0.03
0.00 0.00 0.00 0.00 0.00 0.00 0.00 0.00 0.00 0.00 0.01 0.04 0.04 0.03 0.04 0.02 0.00 0.00 0.00 0.00 0.00 0.00 0.02 0.05 0.10 0.14 0.10 0.09 0.06 0.06 0.08 0.12
0.00 0.00 0.00 0.00 0.00 0.00 0.00 0.00 0.00 0.00 0.01 0.03 0.05 0.04 0.03 0.01 0.00 0.00 0.00 0.00 0.00 0.00 0.00 0.00 0.01 0.02 0.04 0.05 0.04 0.02 0.03 0.06
0.00 0.00 0.00 0.00 0.00 0.00 0.00 0.00 0.00 0.00 0.00 0.00 0.01 0.01 0.01 0.00 0.00 0.00 0.00 0.00 0.00 0.00 0.00 0.00 0.00 0.00 0.00 0.02 0.02 0.03 0.03 0.03
0.00 0.00 0.00 0.00 0.00 0.00 0.00 0.00 0.00 0.00 0.00 0.00 0.00 0.00 0.00 0.00 0.00 0.00 0.00 0.00 0.00 0.00 0.00 0.00 0.00 0.00 0.01 0.02 0.03 0.02 0.02 0.02
0.00 0.00 0.00 0.00 0.00 0.00 0.00 0.00 0.00 0.00 0.00 0.00 0.00 0.00 0.00 0.00 0.00 0.00 0.00 0.00 0.00 0.00 0.00 0.00 0.00 0.00 0.00 0.01 0.01 0.01 0.01 0.01
0.00 0.00 0.00 0.00 0.00 0.00 0.00 0.00 0.00 0.00 0.00 0.00 0.00 0.00 0.00 0.00 0.00 0.00 0.00 0.00 0.00 0.00 0.00 0.00 0.00 0.00 0.00 0.00 0.00 0.00 0.00 0.00
0.00 0.00 0.00 0.00 0.00 0.00 0.00 0.00 0.00 0.00 0.00 0.00 0.00 0.00 0.00 0.00 0.00 0.00 0.00 0.00 0.00 0.00 0.00 0.00 0.00 0.00 0.00 0.00 0.00 0.00 0.00 0.00
MSLP
1017.16 1017.09 1017.07 1016.58 1016.22 1015.79 1015.36 1014.66 1013.84 1012.82 1011.87 1010.49 1008.76 1007.25 1006.35 1006.01 1006.20 1006.28 1005.85 1006.61 1007.09 1007.85 1008.36 1008.83 1009.59 1010.19 1010.59 1011.08 1011.67 1012.18 1012.65 1013.11
1018.17 1017.87 1017.75 1017.22 1016.59 1015.93 1015.38 1014.81 1014.08 1013.52 1012.25 1011.29 1010.01 1008.74 1007.52 1006.19 1005.45 1005.76 1005.88 1005.78 1006.25 1007.05 1007.78 1008.28 1008.75 1009.35 1009.73 1010.22 1010.99 1011.61 1012.29 1012.65
1018.67 1018.68 1018.45 1017.80 1017.00 1016.21 1015.44 1014.96 1014.35 1013.63 1012.93 1011.79 1011.21 1009.68 1007.77 1006.75 1006.12 1005.15 1005.38 1005.26 1005.57 1006.22 1006.87 1007.42 1007.99 1008.53 1009.19 1009.58 1009.94 1010.90 1011.70 1012.08
1019.68 1019.46 1018.78 1018.14 1017.39 1016.33 1015.50 1014.89 1014.39 1013.59 1012.72 1011.51 1010.41 1009.35 1008.01 1006.73 1005.91 1005.56 1004.58 1004.79 1004.68 1005.28 1005.94 1006.54 1007.39 1007.74 1008.34 1008.75 1009.39 1010.00 1010.90 1011.55
1020.43 1019.61 1019.03 1018.64 1017.75 1016.76 1015.75 1014.90 1014.11 1013.22 1012.18 1011.35 1010.44 1009.33 1008.02 1007.04 1006.49 1005.77 1005.28 1004.40 1004.00 1004.54 1005.25 1005.64 1006.48 1007.15 1007.64 1008.18 1008.84 1009.57 1010.23 1010.81
1020.79 1020.76 1020.13 1019.01 1017.95 1016.87 1015.73 1014.66 1013.73 1012.68 1011.59 1010.66 1009.70 1008.50 1007.72 1006.94 1006.32 1005.70 1005.06 1004.47 1003.47 1003.50 1003.99 1004.62 1005.18 1006.21 1007.15 1007.73 1008.36 1008.89 1009.66 1009.97
1021.98 1021.45 1020.43 1019.25 1018.29 1017.16 1016.00 1014.63 1013.32 1012.23 1010.96 1009.73 1009.08 1008.16 1007.27 1006.68 1005.71 1005.23 1004.76 1004.37 1003.45 1002.40 1002.68 1003.68 1004.30 1005.34 1006.23 1006.94 1007.68 1008.49 1009.09 1009.51
1022.31 1021.51 1020.44 1019.41 1018.41 1017.35 1015.94 1014.63 1013.04 1011.59 1010.24 1008.89 1008.09 1007.12 1005.93 1005.43 1004.86 1004.42 1004.34 1004.32 1003.53 1000.63 1001.53 1002.47 1003.18 1004.04 1005.18 1006.29 1007.12 1007.79 1008.47 1009.04
1022.71 1021.82 1020.80 1019.76 1018.74 1017.53 1016.07 1014.55 1013.07 1011.57 1010.07 1008.47 1007.37 1006.04 1005.01 1004.27 1003.72 1003.58 1003.34 1003.69 1003.77 997.97 1000.52 1001.45 1002.47 1003.46 1004.49 1005.60 1006.74 1007.28 1007.91 1008.57
1023.03 1021.92 1020.96 1019.89 1018.84 1017.62 1016.26 1014.74 1013.16 1011.84 1010.32 1008.77 1007.29 1006.26 1004.95 1003.88 1003.84 1003.77 1002.54 1002.56 1004.73 1003.16 998.59 1001.32 1002.41 1003.19 1004.07 1005.16 1006.25 1007.02 1007.40 1007.97
1023.17 1022.21 1021.25 1020.24 1019.18 1017.74 1015.96 1014.94 1013.54 1012.24 1010.67 1009.21 1008.02 1006.73 1005.64 1004.59 1005.03 1003.62 1003.12 1002.67 1003.17 1002.93 1001.76 1002.70 1002.83 1003.20 1004.22 1004.83 1005.96 1006.56 1007.07 1007.50
1023.55 1022.56 1021.54 1020.48 1019.37 1017.77 1016.46 1015.26 1014.02 1012.58 1011.33 1010.31 1009.17 1008.05 1005.90 1005.74 1005.17 1004.39 1004.56 1005.52 1004.32 1004.11 1003.08 1004.06 1005.29 1005.18 1005.54 1005.48 1006.39 1006.34 1006.74 1007.17
1023.96 1023.06 1022.04 1020.95 1019.80 1018.69 1017.90 1016.50 1014.78 1013.62 1012.39 1011.29 1010.54 1008.95 1007.01 1006.46 1005.96 1005.98 1006.08 1007.32 1006.22 1005.84 1005.84 1005.66 1005.78 1007.83 1006.27 1006.72 1007.20 1007.71 1007.45 1007.83
1023.97 1023.21 1022.48 1021.58 1020.56 1019.72 1018.83 1018.08 1016.93 1015.03 1013.87 1012.06 1011.88 1009.25 1007.16 1007.42 1008.02 1008.00 1007.57 1008.94 1009.01 1006.22 1006.96 1008.19 1008.46 1007.63 1006.23 1008.42 1008.96 1008.80 1009.26 1009.60
1024.08 1023.52 1023.02 1022.29 1021.40 1020.37 1019.42 1018.46 1017.44 1016.13 1015.01 1013.36 1011.06 1010.36 1010.12 1009.62 1009.53 1009.56 1008.09 1010.41 1009.90 1010.02 1010.13 1010.41 1010.29 1009.71 1009.11 1009.27 1009.12 1010.14 1010.88 1011.10
1024.31 1023.93 1023.42 1022.74 1021.99 1021.16 1020.10 1018.92 1018.05 1016.99 1015.36 1013.97 1013.29 1012.70 1012.15 1011.21 1009.57 1010.85 1012.05 1012.04 1012.10 1012.94 1011.65 1011.43 1011.11 1010.89 1011.40 1011.18 1011.64 1012.12 1012.22 1011.82
1024.56 1024.17 1023.95 1023.28 1022.61 1022.06 1021.10 1019.99 1018.99 1017.91 1016.78 1015.82 1015.20 1014.20 1013.49 1012.91 1013.03 1012.06 1012.95 1014.48 1014.76 1014.26 1014.41 1013.79 1013.01 1013.51 1013.72 1013.40 1012.86 1012.96 1013.33 1013.02
1024.64 1024.39 1024.32 1023.88 1023.23 1022.68 1021.95 1021.07 1020.16 1019.08 1018.41 1017.64 1017.14 1016.49 1015.61 1014.78 1013.22 1013.75 1015.35 1016.03 1016.70 1016.68 1015.36 1014.58 1015.27 1015.30 1015.09 1014.51 1014.27 1014.52 1014.71 1014.76
1024.69 1024.46 1024.50 1024.21 1023.68 1023.08 1022.52 1021.84 1021.28 1020.29 1019.53 1018.83 1018.19 1017.32 1016.27 1015.98 1016.36 1015.89 1016.15 1016.80 1017.00 1016.54 1015.89 1015.99 1016.34 1016.10 1015.65 1015.26 1015.31 1015.64 1015.78 1015.75
Thickness
5552 5549 5546 5546 5544 5546 5549 5553 5560 5574 5587 5602 5626 5652 5665 5673 5677 5682 5693 5691 5692 5693 5695 5694 5692 5689 5688 5686 5683 5680 5677 5674
5532 5531 5529 5531 5530 5530 5530 5536 5537 5542 5559 5573 5591 5614 5636 5653 5669 5674 5677 5686 5686 5689 5688 5689 5690 5688 5687 5685 5680 5678 5674 5672
5517 5513 5509 5509 5510 5512 5516 5518 5520 5523 5531 5546 5558 5581 5613 5631 5647 5664 5670 5676 5682 5683 5686 5687 5686 5685 5683 5683 5681 5675 5671 5670
5497 5492 5491 5490 5490 5494 5498 5503 5506 5511 5519 5532 5544 5561 5587 5615 5633 5648 5665 5667 5675 5680 5683 5683 5681 5683 5680 5681 5678 5675 5669 5666
5479 5479 5476 5469 5469 5473 5476 5482 5490 5496 5506 5517 5527 5541 5565 5591 5610 5627 5643 5660 5665 5672 5675 5678 5678 5678 5678 5676 5675 5670 5666 5664
5468 5458 5451 5452 5455 5461 5464 5470 5477 5485 5494 5504 5518 5535 5551 5571 5591 5609 5629 5648 5659 5666 5673 5676 5678 5675 5672 5670 5669 5668 5663 5663
5449 5439 5437 5442 5444 5447 5452 5456 5463 5472 5481 5492 5502 5516 5534 5547 5577 5596 5615 5631 5645 5659 5670 5670 5673 5670 5667 5667 5665 5661 5659 5658
5433 5430 5433 5435 5436 5438 5442 5447 5453 5456 5463 5476 5486 5502 5524 5541 5568 5591 5602 5614 5626 5648 5662 5666 5670 5671 5666 5661 5659 5657 5654 5653
5424 5420 5423 5425 5427 5427 5433 5437 5441 5440 5447 5458 5467 5485 5508 5530 5559 5580 5587 5600 5612 5649 5652 5663 5663 5662 5659 5655 5651 5650 5648 5646
5415 5415 5417 5419 5421 5421 5423 5426 5427 5426 5429 5435 5444 5460 5487 5516 5539 5556 5583 5605 5593 5606 5649 5646 5648 5651 5650 5646 5643 5641 5641 5641
5411 5413 5413 5414 5414 5417 5423 5419 5417 5414 5417 5418 5423 5444 5471 5497 5513 5550 5578 5596 5595 5601 5610 5618 5629 5635 5634 5638 5633 5634 5634 5636
5405 5406 5409 5410 5411 5417 5420 5414 5409 5412 5411 5412 5422 5441 5475 5486 5511 5545 5562 5567 5581 5590 5586 5599 5603 5608 5613 5620 5619 5625 5627 5629
5399 5400 5401 5405 5407 5413 5410 5411 5415 5412 5413 5418 5428 5451 5473 5487 5510 5533 5544 5539 5551 5571 5566 5583 5594 5581 5593 5598 5599 5603 5606 5609
5397 5396 5395 5398 5402 5406 5408 5408 5410 5417 5420 5420 5423 5454 5480 5488 5501 5517 5531 5530 5535 5564 5564 5561 5570 5551 5581 5571 5571 5581 5581 5583
5399 5394 5392 5393 5397 5402 5406 5411 5412 5419 5425 5438 5456 5455 5467 5481 5495 5503 5526 5513 5521 5524 5529 5531 5539 5542 5552 5558 5563 5560 5557 5559
5399 5395 5391 5392 5394 5397 5403 5410 5414 5420 5431 5440 5446 5454 5460 5474 5497 5489 5484 5490 5498 5494 5505 5513 5523 5526 5525 5534 5536 5535 5536 5542
5399 5396 5391 5390 5391 5393 5396 5404 5411 5417 5424 5431 5437 5446 5458 5469 5475 5489 5487 5475 5477 5477 5479 5485 5497 5498 5501 5505 5515 5518 5519 5522
5393 5391 5389 5387 5388 5388 5391 5397 5402 5409 5413 5418 5422 5430 5443 5457 5477 5475 5462 5456 5453 5453 5463 5471 5470 5475 5481 5490 5494 5496 5499 5499
5392 5389 5385 5386 5386 5388 5390 5392 5394 5402 5407 5412 5418 5428 5440 5446 5445 5454 5453 5447 5444 5444 5454 5456 5457 5461 5467 5473 5475 5475 5475 5477